Dewpoint
21 21 22 23 23 23 23 23 24 24 24 22 23 24 24 24 24 24 24 24 24 25 25 25 25 25 26 26 25 25 25 25 24 24 24 24 24 25 25 25 25 25 25 24 24 23 22 22 22 23 24 25 26 27 28 28 28 28 27 27 28 29 29 29 30 30 30 30 31
20 21 22 23 22 23 23 24 24 23 23 22 24 24 24 24 24 24 24 24 24 24 25 25 25 25 25 25 25 25 24 24 24 24 24 23 24 24 25 25 25 25 25 25 24 23 23 22 22 23 23 24 25 26 27 27 27 27 26 26 27 28 28 29 28 29 29 30 30
21 21 21 21 21 21 22 23 23 22 22 22 24 24 24 24 24 24 24 24 25 24 25 25 24 25 25 25 25 25 24 24 23 23 22 22 22 23 23 25 24 24 25 25 25 24 23 22 22 23 23 23 24 25 26 27 27 26 26 25 26 26 27 28 28 28 28 29 29
21 21 21 21 20 21 22 22 22 22 22 23 24 24 23 24 24 25 25 24 24 25 25 25 23 23 24 25 25 25 24 24 23 22 21 21 21 21 22 23 23 23 24 25 25 25 24 23 23 23 23 23 24 24 25 26 26 26 25 25 25 25 25 26 26 27 27 28 28
20 21 21 22 21 21 23 23 22 22 22 23 24 23 23 23 24 25 25 25 24 25 25 25 23 23 24 25 25 25 25 24 24 23 21 21 21 21 21 21 21 22 23 24 25 25 25 23 23 23 23 23 24 24 24 25 25 25 25 25 25 25 25 25 25 26 26 27 27
19 19 21 22 22 22 23 24 23 22 23 24 23 23 23 23 25 25 25 24 25 25 25 25 24 24 25 25 25 25 25 25 24 24 23 22 21 21 21 21 21 22 23 23 24 24 25 25 23 23 23 23 23 24 24 24 24 25 25 25 25 25 25 25 25 25 25 26 26
17 17 18 19 21 22 23 24 23 23 23 23 23 23 23 23 24 25 25 25 25 25 25 25 25 25 25 25 25 25 25 25 25 24 23 22 21 21 21 21 21 22 22 22 23 23 24 24 23 23 23 24 24 24 24 24 24 24 24 24 24 24 25 24 25 25 25 25 25
16 16 16 16 17 20 23 24 23 22 22 22 22 23 23 23 24 25 25 25 25 25 25 25 25 25 25 25 25 25 25 25 25 24 24 23 22 22 21 21 21 22 22 23 22 23 23 23 23 23 23 24 24 24 24 24 24 24 23 23 24 24 24 24 24 24 25 25 25
16 16 16 17 19 21 23 24 23 22 21 22 22 23 24 24 25 25 25 25 25 25 25 26 26 26 26 25 25 25 25 25 25 25 25 25 24 23 22 22 21 21 22 22 22 23 23 23 23 23 23 23 24 24 25 25 24 24 23 23 23 24 24 24 24 24 24 25 25
16 16 17 19 21 21 22 23 23 22 22 22 23 23 24 24 25 25 25 25 25 25 25 26 26 26 26 26 25 25 25 25 25 24 24 25 24 23 23 22 21 21 21 22 22 22 22 23 23 24 24 24 24 25 25 25 24 24 24 23 24 24 23 24 24 24 24 25 25
16 16 17 18 20 20 21 22 22 22 22 23 22 23 24 24 25 25 25 25 25 25 25 26 26 26 25 26 25 25 25 26 25 24 24 24 23 23 23 22 21 21 21 22 22 23 23 23 23 24 24 24 25 25 25 25 24 24 24 24 24 24 24 24 24 24 25 25 25
16 16 16 17 19 20 21 22 22 22 22 22 21 22 23 24 24 25 25 25 24 24 25 25 26 26 25 25 26 25 25 25 25 24 23 23 23 23 22 21 22 22 22 22 23 23 23 23 23 23 23 24 24 25 25 25 25 25 25 25 24 24 24 24 23 23 23 24 24
16 16 16 17 18 20 21 21 21 21 21 21 20 21 22 24 24 25 25 25 23 23 24 25 25 26 26 25 26 26 25 25 24 24 24 23 23 22 22 22 22 22 23 23 23 23 23 23 23 23 23 23 24 24 24 24 24 24 24 23 23 22 22 22 22 22 22 22 22
16 16 16 17 18 19 20 21 21 21 21 21 21 21 22 24 24 25 25 25 24 23 23 24 25 25 26 26 26 25 25 25 24 23 23 24 24 23 22 22 22 23 23 24 23 23 22 22 23 23 23 23 23 24 24 24 24 24 24 23 23 22 22 22 22 22 22 22 21
16 16 16 17 18 18 19 21 21 21 21 21 21 21 21 22 23 24 25 25 24 24 24 24 24 25 25 26 26 25 25 25 24 23 23 23 23 23 21 21 21 22 23 23 24 23 23 22 22 23 23 23 23 24 24 24 24 24 24 24 23 22 22 22 22 22 22 21 21
16 16 16 16 17 18 19 20 21 21 21 21 21 21 21 21 22 23 24 25 24 24 24 23 23 25 25 25 25 25 25 25 24 23 23 23 23 22 21 19 19 20 21 22 23 23 23 23 23 23 23 23 23 23 24 24 24 24 24 23 23 22 22 22 22 22 22 22 21
15 15 16 16 17 18 18 20 20 21 21 21 21 21 22 22 22 22 22 22 23 23 22 22 23 24 25 25 25 26 25 25 25 24 24 23 23 22 21 19 17 18 19 21 22 22 22 22 23 23 23 23 23 23 23 24 24 24 24 24 23 23 22 22 22 22 22 22 22
14 15 16 16 17 17 18 18 19 20 20 21 21 21 22 22 21 21 21 22 24 23 21 22 23 24 25 25 25 26 26 26 25 25 24 24 23 23 21 19 17 17 18 19 21 21 21 22 23 23 23 23 23 23 24 24 24 24 24 24 24 23 22 22 22 22 22 22 22
14 14 15 16 16 17 18 18 19 20 20 21 20 20 20 20 19 20 20 21 23 24 23 23 23 24 24 25 25 26 26 26 25 25 25 25 24 24 23 21 18 17 17 18 19 20 21 22 23 23 23 23 23 23 24 24 25 25 25 25 25 24 23 22 22 22 23 23 23
14 14 15 16 17 18 18 19 19 20 21 21 20 20 19 19 19 18 18 19 22 24 24 22 23 23 24 24 25 25 26 26 26 25 25 25 25 24 23 21 19 17 17 17 19 20 20 21 22 23 23 23 23 24 24 25 25 26 26 27 25 25 24 22 22 22 22 23 23
14 14 15 16 17 18 19 20 20 21 21 21 21 20 20 19 19 18 19 20 23 23 22 22 22 22 23 24 24 25 25 26 26 26 26 25 25 24 23 21 20 18 18 18 19 19 20 21 22 23 24 24 24 23 24 24 24 24 25 25 25 24 24 23 22 22 22 22 23
15 15 16 16 17 18 19 21 21 21 21 21 21 21 20 20 19 20 21 22 23 22 22 22 23 23 23 24 24 24 25 26 26 26 26 26 25 24 23 22 21 20 20 19 20 20 21 21 21 23 23 23 23 22 22 22 22 22 22 23 23 24 24 23 23 22 21 22 22
16 16 16 17 18 19 19 21 21 21 21 21 21 21 21 21 20 21 22 22 21 21 21 22 23 24 24 24 24 25 25 25 25 26 26 26 26 25 24 23 23 22 21 20 20 20 20 20 20 21 22 23 22 22 22 22 21 22 22 22 23 24 24 24 23 23 22 23 23
17 17 18 20 20 20 21 22 22 22 22 21 21 21 21 21 21 21 20 20 19 18 19 21 23 24 24 24 25 25 25 25 25 25 26 26 26 25 25 24 23 21 21 21 21 21 21 21 21 21 21 23 23 23 23 23 22 22 22 22 23 23 25 26 26 26 25 25 24
18 18 19 22 21 21 21 23 23 23 22 23 21 21 21 21 21 21 20 19 18 19 19 21 21 23 25 25 25 25 24 24 24 25 25 26 26 25 25 23 22 21 21 21 23 23 23 23 22 22 22 23 25 24 24 23 22 22 22 22 22 22 23 24 25 25 25 24 23
19 19 20 22 22 22 22 23 23 23 23 23 23 22 22 22 22 22 21 20 20 21 22 22 23 25 26 25 25 24 24 24 24 24 25 25 25 25 24 23 22 21 21 22 23 23 23 24 24 23 23 23 24 23 22 21 22 21 21 21 21 21 21 21 22 23 23 23 21
20 20 21 24 24 24 23 23 24 24 24 24 23 23 22 22 22 22 22 21 22 23 25 25 25 26 26 24 24 24 23 23 23 24 24 25 25 24 23 22 21 21 21 23 23 23 23 24 24 24 24 23 23 23 21 20 20 19 19 19 20 20 20 19 19 20 21 23 21
22 22 24 25 25 25 25 25 24 24 24 24 23 23 24 24 24 23 23 23 24 25 25 25 25 24 23 22 23 23 23 23 22 23 24 25 24 24 22 21 21 22 23 23 23 23 23 24 24 24 24 24 23 23 22 20 20 18 17 17 17 17 17 17 18 18 19 20 21
23 25 25 25 25 25 26 26 25 24 24 25 25 25 26 25 25 25 25 25 25 25 24 23 24 23 22 21 22 22 22 22 23 22 22 24 24 23 22 21 21 21 23 24 23 23 23 24 24 24 25 25 23 22 21 20 19 17 16 16 15 15 16 16 17 18 18 18 19
25 25 26 26 26 26 26 26 26 26 26 27 27 27 27 26 26 25 24 24 24 23 22 22 22 22 22 21 21 21 21 21 21 21 22 23 23 23 22 21 21 21 23 24 23 23 24 25 24 24 24 25 24 23 21 20 17 15 14 15 15 15 15 16 16 18 18 18 17
25 26 26 26 26 26 26 26 27 27 28 28 27 27 27 26 26 25 25 24 24 23 22 22 22 22 22 21 21 21 20 19 19 19 20 21 24 24 22 20 20 21 22 23 23 23 24 24 24 24 24 25 24 23 22 20 18 16 15 15 15 14 14 16 16 18 19 19 18
26 26 26 25 26 26 27 27 27 27 27 27 27 27 27 26 25 25 25 25 24 23 22 23 22 22 21 21 21 20 19 18 17 17 18 20 21 22 23 21 21 21 21 23 22 22 23 23 23 24 24 25 25 24 23 20 19 17 16 17 16 16 15 16 16 16 18 20 19
27 26 26 25 25 26 27 27 27 27 27 27 27 27 27 26 26 25 25 25 24 23 22 22 21 21 20 20 21 20 19 18 18 17 17 17 19 21 23 23 21 21 21 21 21 21 21 22 23 23 24 25 25 23 21 20 20 18 17 18 17 16 15 14 14 16 17 19 20
27 26 26 25 25 26 27 27 28 27 27 27 27 27 27 27 26 26 26 25 24 24 23 23 22 21 20 21 21 21 21 20 18 17 17 17 18 21 23 25 23 21 20 20 20 20 20 21 21 22 23 24 25 22 18 18 18 18 17 18 18 18 17 16 16 16 17 19 20
27 27 26 25 25 26 26 27 27 27 27 26 27 27 26 26 26 25 25 24 23 23 23 22 22 21 20 21 23 23 23 23 21 21 20 20 19 20 21 23 22 21 19 18 18 18 19 20 21 21 23 24 25 22 19 18 17 17 17 18 18 19 19 18 17 16 16 17 18
28 28 27 26 26 26 26 27 27 27 26 26 26 26 26 25 25 25 24 23 22 21 21 21 21 21 21 22 23 24 25 25 23 22 21 21 19 19 19 21 21 20 18 18 18 18 18 18 20 21 22 23 23 22 20 20 18 18 17 17 17 18 18 19 17 16 16 17 17
29 28 28 27 26 26 26 26 26 26 26 26 25 25 25 25 25 25 24 23 21 20 19 21 21 21 21 22 23 23 23 22 21 20 20 20 20 18 18 20 21 21 19 18 18 18 17 17 18 20 21 21 22 21 20 19 19 18 17 17 17 18 19 19 19 18 17 17 18
30 29 28 28 27 26 26 26 26 26 26 25 25 25 25 24 24 24 24 23 20 18 18 20 21 21 22 23 23 23 23 22 22 20 18 17 17 17 17 18 21 22 21 18 18 18 17 17 17 19 20 20 21 21 21 19 19 18 18 17 17 18 18 18 19 18 18 18 19
29 30 29 28 27 26 26 26 27 27 27 25 25 25 24 23 23 24 24 23 20 18 18 20 20 21 23 24 23 23 24 23 22 20 18 16 16 17 18 17 20 21 22 20 19 17 16 16 16 18 19 20 21 21 21 20 19 18 18 18 18 17 17 18 18 19 19 19 20
26 29 29 28 27 27 27 27 27 27 26 25 25 25 24 23 23 24 24 23 21 19 19 20 21 22 23 22 22 23 24 23 22 20 18 16 17 18 19 18 19 21 22 21 19 17 16 15 16 17 18 19 20 21 22 21 19 18 18 18 18 18 18 18 19 20 21 20 20
24 26 28 28 27 28 28 28 27 26 25 25 25 24 24 24 24 24 23 22 21 20 20 20 21 22 23 22 21 22 24 24 22 21 18 17 18 19 20 19 20 21 21 21 19 17 15 14 14 16 17 19 20 21 21 20 19 18 18 19 19 18 17 17 18 20 21 21 20